Torna al catalogo

NETSAT-4

AttivoScienzaPO
NORAD 46504·PAYLOAD·🇩🇪 Germany

Lanciato Sep 28, 2020 da Plesetsk Cosmodrome

Loading…

Prossimi Passaggi (prossime 24 ore)

TLE

AggiornatoSource: Space-Track

Epoca: Sep 14, 2026, 11:42 UTC

1 46504U 20068U   26257.48760630  .00016875  00000-0  33959-3 0  9990
2 46504  97.8604 273.1038 0005080  22.4364 337.7106 15.46675373329562

Traccia NETSAT-4 in tempo reale con AllMySat

Download on the App Store